OpenBCM V1.08-3-g9b42 (Linux)

Packet Radio Mailbox

OK0NBR

[Sao_Jose_dos_Campo]

 Login: GUEST





  
I0OJJ  > KEPS     04.11.25 22:03l 316 Lines 15005 Bytes #185 (0) @ AMSAT
BID : ORB25309.1
Read: GUEST
Subj: 2Line Orbital Elements 25309.AMSAT
Path: OK0NBR<IW0QNL<HB9ON<DK0WUE<PD0LPM<IR0AAB<I0OJJ
Sent: 251105/0021z @:I0OJJ.ITA.EU [Rome] obcm1.08-11-2-gbfe9
From: I0OJJ @ I0OJJ.ITA.EU (Gustavo)
To:   KEPS @ AMSAT
X-Info: This message was generated automatically


QST de W1STR

AMSAT Orbital Elements for Amateur Satellites in TLE Format
From Orbital Analysis Office
New England Sci-Tech STEM Education Center
Natick MA November 05, 2025
To all radio amateurs


These element sets describe the orbits of various satellites 
in use by the amateur radio community. For details see:
www.amsat.org/keplerian-elements-formats/

A daily update of element sets is available at:
www.amsat.org/tle/daily-bulletin.txt
or without bulletin text:
www.amsat.org/tle/dailytle.txt


AO-07
1 07530U 74089B   25308.77624265 -.00000031  00000-0  97309-4 0  9997
2 07530 101.9979 314.6419 0012091 198.5629 335.4229 12.53693052332398
UO-11
1 14781U 84021B   25308.85167398  .00002127  00000-0  22659-3 0  9990
2 14781  97.7751 272.4859 0007019 194.3754 165.7265 14.89943351223710
AO-27
1 22825U 93061C   25308.60845200  .00000151  00000-0  74705-4 0  9995
2 22825  98.7198  10.7759 0009093  45.1341 315.0579 14.30854793674888
FO-29
1 24278U 96046B   25308.62257944 -.00000019  00000-0  18818-4 0  9996
2 24278  98.5496 182.8665 0349309 319.0791  38.4601 13.53258856442794
NOAA-15
1 25338U 98030A   25308.82738110  .00000176  00000-0  90013-4 0  9990
2 25338  98.5260 330.3341 0009135 286.8872  73.1307 14.27046798429294
GO-32
1 25397U 98043D   25308.42273545  .00000104  00000-0  64935-4 0  9996
2 25397  98.9885 290.7564 0002066 119.1664 240.9721 14.24360277419331
ISS
1 25544U 98067A   25308.55131963  .00010237  00000-0  18874-3 0  9995
2 25544  51.6336 331.5320 0005029  16.6774 343.4380 15.49747070536935
NO-44
1 26931U 01043C   25308.80705034  .00000228  00000-0  11621-3 0  9990
2 26931  67.0491 104.5707 0007184 272.0163  88.0116 14.31820070258325
SO-50
1 27607U 02058C   25308.82143132  .00001617  00000-0  21256-3 0  9993
2 27607  64.5513 102.7714 0069848 303.6217  55.8236 14.82168011231194
CO-55
1 27844U 03031E   25308.30002962  .00000433  00000-0  20716-3 0  9991
2 27844  98.6780 314.6970 0010621 115.9076 244.3198 14.24128919159663
CO-57
1 27848U 03031J   25307.96679492  .00000379  00000-0  18620-3 0  9994
2 27848  98.6806 314.2602 0010287 132.9393 227.2650 14.23444431159339
RS-22
1 27939U 03042A   25308.88482855  .00001461  00000-0  23677-3 0  9995
2 27939  98.3371 122.0829 0010266 259.1883 237.3361 14.72799112182524
CO-58
1 28895U 05043F   25308.36970832  .00002233  00000-0  36649-3 0  9991
2 28895  98.2701  94.8108 0014126 194.4964 165.5839 14.71654828 68672
CO-65
1 32785U 08021C   25308.85034267  .00006373  00000-0  43703-3 0  9998
2 32785  97.8041 281.4307 0011871  73.8092 286.4440 15.06327702951385
CO-66
1 32791U 08021J   25308.43605782  .00018922  00000-0  79710-3 0  9995
2 32791  97.7418 292.3232 0005293  46.9057 313.2621 15.23385204952965
RS-30
1 32953U 08025A   25308.80517147  .00000029  00000-0  13918-3 0  9994
2 32953  82.4997 135.0195 0019956  81.7773 278.5569 12.43170116791814
NOAA-19
1 33591U 09005A   25308.79342272  .00000067  00000-0  59738-4 0  9998
2 33591  98.9815  14.2140 0012910 307.4743  52.5254 14.13423565862784
SRMSAT
1 37841U 11058D   25308.79685917  .00000466  00000-0  10906-3 0  9993
2 37841  19.9733 337.5894 0011536 255.2120 278.7412 14.11491194726077
ZACUBE-1
1 39417U 13066B   25308.80426356  .00005908  00000-0  49082-3 0  9990
2 39417  97.7976 265.3226 0041370 277.0908  82.5611 14.98462081647097
Delfi-N3xt
1 39428U 13066N   25308.70000815  .00008234  00000-0  79070-3 0  9994
2 39428  97.8311 224.8572 0078794 231.3743 128.0404 14.90978120641129
GOMX-1
1 39430U 13066Q   25308.81188924  .00001961  00000-0  30495-3 0  9995
2 39430  97.6631 158.3094 0132396  77.7602 283.8394 14.68328727636972
LO-74
1 39440U 13066AA  25308.43619001  .00005753  00000-0  56199-3 0  9991
2 39440  97.8645 252.1877 0062014  52.6779 308.0068 14.91324418643467
AO-73
1 39444U 13066AE  25308.83677117  .00009056  00000-0  63184-3 0  9993
2 39444  97.8014 271.6876 0037431 244.6688 115.0659 15.05044561645865
DTUSAT-2
1 40030U 14033W   25308.46622453  .00008706  00000-0  52793-3 0  9998
2 40030  98.0719 287.8122 0006427 286.6821  73.3701 15.10799761618704
EO-80
1 40032U 14033Y   25308.87596676  .00008208  00000-0  49701-3 0  9994
2 40032  98.0603 287.6920 0006600 205.3836 154.7068 15.10871550618740
LILACSAT-2
1 40908U 15049K   25308.82130273  .00014909  00000-0  33834-3 0  9991
2 40908  97.4959 333.0722 0008070   1.4947 358.6323 15.43124034561050
IO-86
1 40931U 15052B   25151.18580175  .00001241  00000-0  78118-4 0  9996
2 40931   6.0006  24.0987 0012733 338.8432  21.1169 14.78805930523159
Horyu-4
1 41340U 16012D   25307.10201157  .00042336  00000-0  83105-3 0  9994
2 41340  30.9945 221.1893 0004042 190.6937 169.3626 15.46060942535402
Lapan A3
1 41603U 16040E   25308.86010459  .00003859  00000-0  13061-3 0  9995
2 41603  97.1423 307.8072 0012768  97.9312 262.3380 15.31103246520461
CAS-2T
1 41847U 16066G   25308.65360664  .00001499  00000-0  21856-3 0  9995
2 41847  98.4082  21.7666 0345476  90.3571 273.7207 14.43990433472381
TechnoSat
1 42829U 17042E   25308.45239577  .00004437  00000-0  33296-3 0  9993
2 42829  97.4045 110.3260 0019846 137.4136 222.8634 15.02962691452922
AO-91
1 43017U 17073E   25308.16556977  .00012568  00000-0  60392-3 0  9992
2 43017  97.4997 175.2629 0165437  23.3550 337.5082 15.07610032431425
S-Net D
1 43186U 18014G   25308.48677595  .00007151  00000-0  40103-3 0  9990
2 43186  97.5484 209.9031 0010722  77.3395 282.9035 15.13632992424731
S-Net B
1 43187U 18014H   25308.69255572  .00006709  00000-0  37663-3 0  9996
2 43187  97.5490 210.0858 0011368  72.6765 287.5709 15.13612046424765
S-Net A
1 43188U 18014J   25308.55274554  .00007299  00000-0  40907-3 0  9993
2 43188  97.5497 210.1180 0011261  73.5796 286.6672 15.13640020424748
S-Net C
1 43189U 18014K   25308.69538993  .00006418  00000-0  36042-3 0  9996
2 43189  97.5512 210.2982 0012728  66.7834 293.4736 15.13605169423318
Ten-Koh
1 43677U 18084G   25308.72929123  .00003134  00000-0  24766-3 0  9990
2 43677  98.0673 126.8409 0009345 134.2323 225.9669 15.01423402382465
PO-101
1 43678U 18084H   25308.81105763  .00002165  00000-0  18314-3 0  9992
2 43678  98.1086 130.7485 0007957 140.0898 220.0910 14.99163867382582
QO-100
1 43700U 18090A   25308.61233126  .00000000  00000-0  00000+0 0  9993
2 43700   0.0135 270.2558 0002704 355.1394  24.9078  1.00271427 25424
MinXSS-2
1 43758U 18099A   25308.64026201  .00022362  00000-0  72694-3 0  9999
2 43758  97.4861  15.5546 0009820 359.5576   0.5655 15.31870182379588
AO-95
1 43770U 18099N   25308.64174429  .00012492  00000-0  57224-3 0  9994
2 43770  97.4738   5.2328 0011063  61.6863 298.5487 15.20569559379023
SNUSat 2
1 43782U 18099AA  25308.61825912  .00009506  00000-0  47998-3 0  9993
2 43782  97.4421   0.6946 0011364   8.6250 351.5176 15.17253802378925
SnugLite
1 43784U 18099AC  25308.57251604  .00012930  00000-0  58672-3 0  9997
2 43784  97.4230   0.5700 0003404  26.0565 334.0841 15.20933681379101
ITASat 1
1 43786U 18099AE  25308.60421862  .00007765  00000-0  41570-3 0  9997
2 43786  97.4391 359.7233 0014994  58.5340 301.7355 15.15205368378858
EAGLET 1
1 43790U 18099AJ  25308.09246941  .00006072  00000-0  37127-3 0  9991
2 43790  97.4593 358.6274 0012663  47.9358 312.2947 15.10541931378322
ESEO
1 43792U 18099AL  25308.80973633  .00002779  00000-0  20915-3 0  9994
2 43792  97.4283 350.5352 0012687  22.5702 337.6079 15.03251763378089
JO-97
1 43803U 18099AX  25308.58618619  .00016043  00000-0  64277-3 0  9990
2 43803  97.4488   6.5640 0006424 358.5247   1.5970 15.25100339379292
Suomi 100
1 43804U 18099AY  25308.60436470  .00012551  00000-0  55304-3 0  9998
2 43804  97.4548   5.3906 0011125 359.2892   0.8326 15.21898075379182
ISAT
1 43879U 18111D   25308.72339205  .00035292  00000-0  94075-3 0  9991
2 43879  97.5893 227.0164 0009986  48.9481 311.2625 15.38031302376396
UWE-4
1 43880U 18111E   25308.71242014  .00023584  00000-0  76657-3 0  9990
2 43880  97.5839 224.2631 0013123  55.5601 304.6878 15.31826742376256
Sparrow
1 43881U 18111F   25308.75895213  .00038898  00000-0  97447-3 0  9994
2 43881  97.6071 230.5910 0009368  75.3698 284.8585 15.39922804376515
Prox-1
1 44339U 19036A   25308.72881531  .00014112  00000-0  16329-2 0  9997
2 44339  23.9949 166.2386 0007217 328.6675  31.3392 14.83743070340013
Taurus 1
1 44530U 19059C   25308.89203329  .00007896  00000-0  13788-2 0  9993
2 44530  98.6216  95.6904 0008751 291.6667  68.3604 14.68206604325689
Duchifat 3
1 44854U 19089C   25308.84316420  .00217369  00000-0  14702-2 0  9992
2 44854  36.9305 119.8092 0008904   0.6305 359.4470 15.73405174326110
TO-108
1 44881U 19093C   25308.85864059  .00001213  00000-0  14479-3 0  9995
2 44881  97.7798  21.3325 0015095 103.5745 256.7153 14.85966631318094
FloripaSat 1
1 44885U 19093G   25308.84281145  .00006898  00000-0  55148-3 0  9999
2 44885  97.8080  36.8723 0011887  89.1310 271.1276 15.00490571318964
RS-44
1 44909U 19096E   25308.78388542  .00000020  00000-0  41616-4 0  9998
2 44909  82.5181 128.8338 0216703 309.2302  48.9737 12.79745132273645
SALSAT
1 46495U 20068K   25308.75827353  .00009120  00000-0  36399-3 0  9997
2 46495  97.8757 294.0148 0011437  18.8235 341.3422 15.25357392281095
CSS (TIANHE-1)
1 48274U 21035A   25308.86414654  .00028539  00000-0  34062-3 0  9997
2 48274  41.4669 246.7216 0006231 323.7502  36.2914 15.60384983258118
TUBIN
1 48900U 21059X   25308.84409720  .00173886  00000-0  79071-3 0  9990
2 48900  97.6689 132.1064 0001636  29.2379 330.8981 15.83387775243288
CUTE
1 49263U 21088D   25308.66406514  .00033438  00000-0  49348-3 0  9995
2 49263  97.4400  29.8967 0006313  59.4665 300.7211 15.55281159227376
